Regional Weather Roundup
Issued by NWS

Home | Current Version | Previous Version | Graphics & Text | Print | Product List | Glossary On
Versions: 1 2 3 4 5 6 7 8 9 10 11 12 13 14 15 16 17 18 19 20 21 22 23 24 25 26 27 28 29 30 31 32 33 34 35 36 37 38 39 40 41 42 43 44 45 46 47 48 49 50
000
ASUS43 KMKX 010111
RWRWI

WISCONSIN REGIONAL WEATHER ROUNDUP
NATIONAL WEATHER SERVICE MILWAUKEE/SULLIVAN WI
800 PM CDT SUN AUG 31 2014

NOTE: "FAIR" INDICATES FEW OR NO CLOUDS BELOW 12,000 FEET WITH NO
SIGNIFICANT WEATHER AND/OR OBSTRUCTIONS TO VISIBILITY.

WIZ001-002-006>008-014>016-023>028-010200-
NORTHWEST WISCONSIN

CITY           SKY/WX    TMP DP  RH WIND       PRES   REMARKS
SUPERIOR ARPT  MOCLDY    62  61  97 E6        29.61F
ASHLAND        MOCLDY    74  67  78 S7        29.64F
HAYWARD        PTCLDY    75  69  81 S16G22    29.64F
SIREN          MOCLDY    75  69  81 SW7       29.61F
RICE LAKE      MOCLDY    71  63  77 SE9       29.66F THUNDER
LADYSMITH      MOCLDY    75  68  78 SE7       29.72F
EAU CLAIRE     MOCLDY    78  70  76 SE14      29.65F HX  80
MENOMONIE      MOCLDY    77  69  76 SE12      29.64F
NEW RICHMOND   MOCLDY    78  65  65 SW18      29.63S HX  80
OSCEOLA        MOCLDY    78  69  71 SW10G21   29.64F HX  81
$$

WIZ003>005-009-010-017-018-010200-
NORTH CENTRAL WISCONSIN

CITY           SKY/WX    TMP DP  RH WIND       PRES   REMARKS
WOODRUFF       PTCLDY    72  67  84 S12       29.76F
RHINELANDER    CLEAR     68  65  90 S7        29.80F
EAGLE RIVER    CLEAR     68  63  83 S5        29.79F
LAND O LAKES   CLEAR     67  64  87 S9        29.78F
PHILLIPS       MOCLDY    71  66  83 S14       29.72F
TOMAHAWK       PTCLDY    69  64  85 SE5       29.78F
MEDFORD        CLOUDY    72  67  82 SE8       29.77F
MERRILL        MOCLDY    71  66  85 SE6       29.79F
$$

WIZ029-030-035-036-043>047-010200-
CENTRAL WISCONSIN

CITY           SKY/WX    TMP DP  RH WIND       PRES   REMARKS
WAUSAU         CLEAR     73  66  78 SE9       29.77F
MOSINEE        NOT AVBL
MARSHFIELD     PTCLDY    74  67  78 S9        29.76F
STEVENS POINT  CLEAR     72  66  82 SE6       29.80F
WAUPACA        CLEAR     74  69  82 E7        29.80F
WAUTOMA        PTCLDY    75  69  81 CALM      29.81S
WISC RAPIDS    PTCLDY    75  68  78 SE6       29.79F
CAMP DOUGLAS   MOCLDY    75  70  83 SE6       29.77F
$$

WIZ011>013-019>022-031-037>040-048>050-010200-
NORTHEAST WISCONSIN

CITY           SKY/WX    TMP DP  RH WIND       PRES   REMARKS
ANTIGO         MOCLDY    67  66  95 SE13G18   29.82S
STURGEON BAY   CLOUDY    64  61  88 S13       29.87F
GREEN BAY      CLOUDY    67  65  93 SE12      29.83F
MANITOWOC      FOG       66  65  96 SE8       29.87F VSB 1/4
APPLETON       MOCLDY    70  68  94 SE13      29.84F
CLINTONVILLE   MOCLDY    68  64  88 SE9       29.81F FOG
OSHKOSH        PTCLDY    72  68  87 SE12      29.82F
$$

WIZ032>034-041-042-053>061-010200-
SOUTHWEST WISCONSIN

CITY           SKY/WX    TMP DP  RH WIND       PRES   REMARKS
LA CROSSE      LGT RAIN  71  64  78 SW6       29.74S
SPARTA         CLOUDY    78  65  64 S10       29.75F HX  80
VIROQUA        FAIR      76  67  75 S6        29.77F
BOSCOBEL       MOCLDY    80  67  64 S3        29.76F HX  82
PRAIRIE DU CHI MOCLDY    79  67  68 E5        29.73F HX  81
PLATTEVILLE    FAIR      75  69  81 CALM      29.80F
$$

WIZ056-057-062-063-064-067-068-010200-
SOUTH CENTRAL WISCONSIN

CITY           SKY/WX    TMP DP  RH WIND       PRES   REMARKS
BARABOO/DELLS  CLEAR     75  65  70 S9        29.80F
LONE ROCK      MOCLDY    79  68  69 E6        29.78F HX  81
WATERTOWN      CLEAR     74  67  78 S6        29.84F
MADISON        PTCLDY    79  67  66 S9        29.82F HX  81
MIDDLETON      FAIR      79  67  65 S8        29.83S HX  81
MONROE         PTCLDY    75  68  78 S9        29.83F
JANESVILLE     PTCLDY    77  66  69 SE10      29.83F
$$

WIZ051-052-058>065-066-070>072-010200-
SOUTHEAST WISCONSIN

CITY           SKY/WX    TMP DP  RH WIND       PRES   REMARKS
MILWAUKEE      PTCLDY    75  67  76 SE7       29.86F
WAUKESHA       CLEAR     75  64  69 S9        29.87F
MILWAUKEE/TIMM CLEAR     75  66  73 SE5       29.86F
RACINE         CLEAR     74  68  81 S6        29.88F
BURLINGTON     CLEAR     69  65  88 S3        29.87F
KENOSHA        CLEAR     75  67  76 S5        29.87F
FOND DU LAC    CLEAR     71  67  87 SE10      29.83F
SHEBOYGAN      FOG       66  65  96 SE6       29.87S VSB 1/2
WEST BEND      CLOUDY    68  64  88 CALM      29.86F FOG
JUNEAU         CLEAR     73  66  76 SE9       29.84F
$$

LSZ147-162-010200-
LAKE SUPERIOR

STATION/POSITION TIME  TEMP    WIND        PRES    WAVE
                       AIR SEA DIR/SP/G            HT/PER
                 (UTC) (F)     (DEG/KT/KT) (MB)    (FT/S)
W MID LAKE BUOY  0050   63 58  110/ 10/ 12 1004.5F   2/ 4
DEVILS ISLAND    0100   66     110/  8/  8 1003.1F
PORT WING        0000   65      70/  4/ 12 1003.4F
SAXON HARBOR     0000   76     190/  7/ 13 1004.1F
$$

LMZ867-665-643>646-010200-
LAKE MICHIGAN

STATION/POSITION TIME  TEMP    WIND        PRES    WAVE
                       AIR SEA DIR/SP/G            HT/PER
                 (UTC) (F)     (DEG/KT/KT) (MB)    (FT/S)
N MID LAKE BUOY  0050   65 66  150/ 10/ 10 1011.3F   1
NORTHPORT PIER   0000   65     150/ 11/ 14 1011.5F
KEWAUNEE LAKESHO 0000   62     160/  5/  6 1011.1F
SHEBOYGAN LAKESH 0100   65 53  160/  7/  8 1011.5F
ATWATER BUOY     0100   71     160/ 12/ 14 1012.0F
MILWAUKEE LAKESH 0000   69     130/  6/  9   N/A
S MID LAKE BUOY  0050   72 71  130/  8/  8 1011.9F   1
KENOSHA   LAKESH 0100   72     170/  7/  7 1010.8F
$$

TC  - TEMPERATURE IN CELSIUS
VSB - VISIBILITY IN STATUTE MILES
WCI - WIND CHILL INDEX
HX  - HEAT INDEX




USA.gov is the U.S. government's official web portal to all federal, state and local government web resources and services.